Regional Weather Roundup
Issued by NWS

Home | Current Version | Previous Version | Graphics & Text | Print | Product List | Glossary On
Versions: 1 2 3 4 5 6 7 8 9 10 11 12 13 14 15 16 17 18 19 20 21 22 23 24 25 26 27 28 29 30 31 32 33 34 35 36 37 38 39 40 41 42 43 44 45 46 47 48 49 50
000
ASUS43 KDMX 032208
RWRIA

WEATHER ROUNDUP FOR IOWA
NATIONAL WEATHER SERVICE DES MOINES IA
500 PM CDT TUE MAY 03 2016

NOTE: "FAIR" INDICATES FEW OR NO CLOUDS BELOW 12,000 FEET WITH NO
SIGNIFICANT WEATHER AND/OR OBSTRUCTIONS TO VISIBILITY.

* - THESE STATIONS ARE NOT NWS STATIONS...THUS NOT UNDER NWS
QUALITY CONTROL.  THEY ALSO DO NOT REPORT WEATHER SUCH
AS PRECIPITATION OR FOG.

IAZ001>003-012>014-020>022-031>034-043>046-032300-
   NORTHWEST IOWA

CITY           SKY/WX    TMP DP  RH WIND       PRES   REMARKS
CARROLL *      MOSUNNY   68  46  45 W20G28    29.89F
CHEROKEE *     MOSUNNY   68  45  42 W10G30    29.88F
DENISON *      MOSUNNY   68  45  42 NW15G25   29.88F
LE MARS *      MOSUNNY   68  45  42 W20G28    29.90F
ORANGE CITY *  MOSUNNY   66  46  48 W22G30    29.88F
SHELDON *      MOSUNNY   70  45  40 NW18G29   29.85F
SIOUX CITY     MOSUNNY   70  46  42 NW13G25   29.90F
SPENCER        MOSUNNY   68  44  42 W24G33    29.84F
STORM LAKE *   MOSUNNY   66  45  45 W25G32    29.88F
$$

IAZ055>058-069>071-079>083-090>094-032300-
   SOUTHWEST IOWA

CITY           SKY/WX    TMP DP  RH WIND       PRES   REMARKS
ATLANTIC *     PTSUNNY   68  45  42 W16G24    29.92F
AUDUBON *      MOSUNNY   68  43  40 W8        29.91F
CLARINDA *       N/A    N/A N/A N/A MISG        N/A
COUNCIL BLFS * MOSUNNY   70  45  40 W14G22    29.94F
CRESTON *      MOSUNNY   66  41  39 W16       29.94F
HARLAN  *      MOSUNNY   68  41  37 NW15G24   29.95F
LAMONI         MOSUNNY   66  43  43 W15       29.93F
RED OAK *      MOSUNNY   70  43  37 W13       29.94F
SHENANDOAH *   MOSUNNY   70  43  37 NW8G16    29.95F
$$

IAZ047>049-059>061-072>074-084-032300-
   CENTRAL IOWA

CITY           SKY/WX    TMP DP  RH WIND       PRES   REMARKS
AMES           PTSUNNY   68  44  42 W18G28    29.86F
ANKENY *       PTSUNNY   66  43  42 W17G28    29.87F
BOONE *        PTSUNNY   68  45  42 W20       29.86F
CHARITON *     SUNNY     66  43  42 W16G22    29.91F
DES MOINES     CLOUDY    68  39  34 W13       29.89F
GRINNELL*      PTSUNNY   66  41  39 W15G23    29.87F
KNOXVILLE *    MOSUNNY   68  39  34 W17G25    29.88F
MARSHALLTOWN   PTSUNNY   66  42  41 W21G32    29.84F
NEWTON *       PTSUNNY   66  41  39 W16G25    29.87F
PELLA *        SUNNY    N/A N/A N/A W14       29.90
PERRY *          N/A     68  45  42 W20G29    29.89F
$$

IAZ004>006-015-016-023>025-035-036-032300-
   NORTH CENTRAL IOWA

CITY           SKY/WX    TMP DP  RH WIND       PRES   REMARKS
ALGONA *       PTSUNNY   68  45  42 W23G33    29.84F
CLARION *      MOSUNNY   68  45  42 W26G32    29.83F
ESTHERVILLE    MOSUNNY   67  47  48 W21G33    29.82F
FORT DODGE *   MOSUNNY   66  45  45 W17G24    29.86F
MASON CITY     MOSUNNY   66  44  45 W21G29    29.81F
FOREST CITY *  PTSUNNY   66  43  42 W15G32    29.81F
WEBSTER CITY * PTSUNNY   68  45  42 W21G30    29.84F
IOWA FALLS *   PTSUNNY   68  43  40 W23G29    29.85F
$$

IAZ007>011-017>019-026>030-037>042-050>054-066-032300-
   NORTHEAST IOWA

CITY           SKY/WX    TMP DP  RH WIND       PRES   REMARKS
CEDAR RAPIDS   PTSUNNY   65  42  43 W23       29.84F
CHARLES CITY * MOSUNNY   68  37  32 W22G30    29.80F
CLINTON *      PTSUNNY   66  42  41 W23       29.84F
DECORAH *      PTSUNNY   66  36  32 W10G21    29.77F
DUBUQUE        PTSUNNY   64  39  39 W14G25    29.82F
MONTICELLO *   PTSUNNY   66  39  37 W18       29.82F
OELWEIN *      PTSUNNY   66  41  39 W24       29.81F
WATERLOO       CLOUDY    68  39  34 W18G28    29.81F
$$

IAZ064-065-067-068-078-032300-
   EAST CENTRAL IOWA

CITY           SKY/WX    TMP DP  RH WIND       PRES   REMARKS
DAVENPORT      MOSUNNY   67  40  37 W21G26    29.86F
IOWA CITY      CLOUDY    66  40  38 W14G23    29.87F
MT. PLEASANT * MOSUNNY   68  43  40 W13       29.89F
MUSCATINE *    SUNNY     68  41  37 W15       29.87F
QUAD CITIES    MOSUNNY   66  39  37 W15G24    29.85F
$$

IAZ062-063-075>077-085>089-095>099-032300-
   SOUTHEAST IOWA

CITY           SKY/WX    TMP DP  RH WIND       PRES   REMARKS
BURLINGTON     PTSUNNY   65  42  43 W10       29.89F
FAIRFIELD *    MOSUNNY   66  41  39 W13G22    29.89F
FORT MADISON * MOSUNNY   66  41  39 W6        29.91F
KEOKUK *       PTSUNNY   68  39  34 W13       29.90F
OSKALOOSA *      N/A     68  37  32 W17       29.89F
OTTUMWA        MOSUNNY   65  40  39 W14G23    29.89F
WASHINGTON *   MOSUNNY   68  41  37 W17       29.89F
$$

ABBREVIATIONS USED IN REMARKS
   TC - TEMPERATURES IN CELSIUS
  WCI - WIND CHILL INDEX
   HX - HEAT INDEX
  VSB - VISIBILITY
$$




USA.gov is the U.S. government's official web portal to all federal, state and local government web resources and services.